Theta_e
276 275 275 275 275 276 275 275 275 274 274 274 274 274 275 275 276 276 276 277 277 276 276 276 277 277 277 278 278 280 281 282 284 285 286 288 289 291 292 291 291 292
275 275 276 276 275 275 275 275 274 274 274 274 274 275 275 275 276 276 276 276 276 276 276 276 276 276 277 277 278 279 279 281 283 285 284 285 287 290 292 292 292 292
274 274 274 273 273 273 274 274 274 274 274 274 275 275 275 276 276 276 276 276 276 276 276 276 276 276 276 277 278 278 278 281 281 282 283 283 285 288 291 293 292 292
273 273 273 273 273 273 274 274 274 274 274 274 274 275 275 276 276 276 275 276 275 275 275 275 275 275 276 277 277 277 278 280 280 281 281 282 284 286 290 292 292 292
273 273 273 273 273 274 273 273 273 273 273 274 274 275 275 275 275 275 275 274 274 274 274 274 274 274 275 275 275 276 278 278 279 280 280 281 283 284 287 290 291 290
272 272 273 272 273 273 272 272 273 273 273 274 274 275 275 275 275 275 274 274 273 273 273 273 274 274 274 274 275 276 276 276 277 278 278 279 280 283 285 288 290 290
271 271 271 272 272 272 272 272 272 273 273 274 274 274 274 274 274 274 274 274 273 273 273 273 273 273 274 274 274 274 275 274 275 275 277 278 280 281 282 285 288 289
270 270 271 271 270 270 271 271 271 272 273 273 273 274 274 274 273 273 273 273 272 272 272 272 272 273 273 273 273 273 273 273 274 275 277 278 279 279 280 283 286 289
270 269 269 269 269 269 270 270 271 271 272 272 272 273 273 273 273 273 273 272 272 271 271 271 271 272 273 273 272 272 272 272 273 275 274 275 277 278 280 281 283 287
268 268 268 268 268 269 269 269 270 270 271 271 272 272 272 272 272 272 272 271 271 271 270 270 271 271 272 272 272 271 271 271 272 273 273 274 275 278 280 281 282 285
267 268 267 267 268 268 268 269 269 270 270 271 271 271 272 271 271 271 270 270 270 270 269 270 270 271 271 271 271 271 271 271 271 272 272 273 275 277 279 279 280 282
267 267 267 267 267 267 268 268 269 269 270 270 270 270 270 270 269 269 269 268 269 269 269 269 270 270 270 270 270 271 271 271 271 271 271 273 274 275 276 278 279 282
266 266 267 267 267 267 268 268 268 268 269 269 269 269 268 268 268 267 267 267 268 268 268 268 269 269 269 269 270 270 270 270 270 270 271 272 273 274 276 278 280 283
266 266 266 267 267 267 268 268 268 268 267 268 268 267 266 266 266 266 266 267 267 267 268 268 268 268 269 269 269 270 270 270 270 270 271 272 273 275 277 279 280 282
266 266 266 266 267 267 267 267 266 266 266 266 265 265 265 265 265 265 265 265 266 267 267 268 268 268 269 269 269 269 269 269 269 270 270 271 272 274 276 279 280 283
266 266 266 266 266 266 265 265 264 264 263 263 263 264 264 264 264 264 264 265 265 266 267 267 268 268 270 273 274 271 270 270 270 270 271 272 273 275 277 279 280 282
265 265 265 265 265 264 263 263 262 262 262 262 262 262 262 263 263 263 264 265 265 266 266 267 268 269 272 274 275 276 274 272 272 272 273 273 273 274 275 278 280 283
265 264 264 263 263 262 262 261 261 261 260 261 261 261 262 262 263 263 264 265 266 266 267 267 268 271 274 275 276 276 276 273 273 273 273 274 275 276 277 279 280 282
263 263 262 261 261 261 260 260 259 259 259 259 259 261 262 262 262 263 264 265 265 266 267 267 268 272 274 275 275 276 277 276 273 273 273 273 274 276 278 280 282 283
262 261 261 260 260 259 259 259 258 258 259 260 260 261 261 262 263 263 264 265 266 266 267 268 268 271 274 275 276 276 277 277 274 273 273 273 274 275 277 279 281 282
261 260 259 259 258 258 258 258 258 258 259 260 260 261 262 262 263 263 264 265 266 267 267 267 268 273 275 276 276 278 278 278 275 274 274 274 274 276 277 279 281 281
259 258 258 257 257 257 257 257 258 259 259 260 261 262 263 264 264 264 264 265 266 267 267 267 269 274 275 276 277 278 278 275 275 274 274 274 275 276 277 279 280 280
258 257 257 257 257 257 257 257 258 258 259 261 261 262 262 262 262 263 264 265 266 267 267 268 268 272 275 276 277 278 277 274 274 274 274 274 276 278 279 280 281 281
257 257 256 256 256 256 257 257 259 260 261 262 261 261 261 261 262 263 264 264 265 266 267 267 268 272 276 277 278 279 278 275 274 274 274 275 276 278 279 280 281 283
256 256 256 256 256 256 257 257 259 260 261 261 261 261 261 262 262 262 262 264 265 266 269 269 269 272 275 277 278 278 277 276 275 274 274 275 276 278 280 281 282 283
256 256 256 256 256 257 257 259 260 260 260 260 260 261 261 261 261 261 261 263 265 266 267 268 268 270 273 277 278 279 280 277 276 274 274 274 276 277 279 280 282 283
Wind_Speed
6 6 7 7 7 7 8 9 8 9 9 9 9 11 11 12 12 13 15 14 16 17 16 19 18 17 16 16 17 17 15 16 14 12 14 16 16 16 16 15 12 11
7 7 7 7 8 7 8 9 10 10 11 11 11 11 12 13 13 12 14 15 15 16 18 18 18 18 18 17 16 16 16 16 16 10 12 18 17 18 18 17 15 12
7 6 7 8 9 11 11 10 10 10 11 13 13 12 12 11 13 12 13 14 15 18 17 18 19 18 18 18 14 14 15 15 13 12 12 15 14 17 15 14 12 13
7 7 8 9 9 10 10 10 11 10 11 12 12 12 12 12 13 14 14 15 16 15 17 17 18 18 18 16 15 14 16 14 14 12 13 13 13 15 16 13 12 12
8 9 8 9 9 10 10 11 12 12 12 13 14 13 14 14 14 16 12 17 13 18 16 18 17 18 18 18 18 17 15 13 11 11 12 14 13 13 14 13 12 13
8 7 8 9 10 10 11 12 13 13 14 15 14 15 13 15 15 14 17 15 17 15 19 17 18 17 18 18 18 16 13 13 14 14 16 15 15 14 12 14 13 13
10 9 11 10 10 10 12 13 13 13 13 14 15 14 13 16 14 19 15 18 15 18 17 17 18 18 17 16 17 17 16 14 15 17 18 16 13 16 15 15 15 14
10 9 10 10 12 12 13 13 12 12 14 14 15 18 14 14 20 14 18 14 18 16 18 17 18 18 18 17 17 16 19 12 14 18 18 15 13 14 16 14 15 15
10 10 10 11 12 12 13 13 13 14 13 16 18 14 15 16 14 18 15 19 17 18 17 18 18 18 16 17 18 19 20 18 17 17 16 17 17 16 14 15 16 16
10 10 11 11 12 11 13 13 14 15 14 16 16 16 15 14 16 16 19 16 19 19 18 17 18 17 17 18 19 20 20 19 18 18 17 18 19 18 14 13 15 16
11 11 12 12 13 12 14 15 15 15 15 15 16 16 17 17 17 16 16 17 17 17 17 17 17 17 18 19 18 18 19 18 18 18 18 18 19 17 16 14 14 16
11 11 12 13 14 14 15 16 15 15 16 15 15 17 17 16 18 16 16 17 17 18 17 17 17 17 18 19 20 19 18 19 19 19 19 19 18 18 18 15 14 17
11 11 12 13 13 14 14 13 15 15 15 16 14 15 16 18 17 18 16 16 17 17 16 17 17 17 18 18 20 20 19 20 20 20 20 18 18 18 18 17 16 16
10 11 12 12 13 13 14 16 15 15 16 16 16 17 16 17 17 18 17 15 16 16 17 16 17 17 17 18 18 18 18 19 18 18 19 19 19 19 17 15 15 17
11 11 11 12 13 14 17 15 16 16 16 15 15 15 15 16 16 17 18 18 18 17 18 16 16 16 15 15 16 18 18 19 19 19 19 19 19 19 18 16 14 15
11 11 12 12 13 14 14 14 14 15 15 15 15 15 15 15 16 17 18 19 19 18 17 15 14 13 18 27 25 18 17 15 15 16 17 18 18 18 17 15 16 16
11 11 12 13 13 13 13 14 14 14 15 15 15 14 15 15 15 17 17 17 18 17 17 15 14 14 24 26 27 29 22 18 17 17 17 18 18 18 18 16 14 15
11 12 12 13 13 13 13 13 14 14 14 14 14 15 14 13 15 17 17 17 16 17 17 16 16 21 26 26 27 28 26 20 17 17 16 17 17 18 16 15 15 15
10 12 13 13 12 12 13 14 14 14 14 15 15 14 14 15 15 16 17 17 17 17 17 16 17 23 27 27 26 27 28 25 18 17 17 17 19 19 17 15 12 11
11 12 13 13 12 13 13 14 14 14 14 13 14 14 14 15 15 16 17 17 16 16 16 16 18 23 27 27 27 28 28 26 19 19 18 18 20 19 17 16 14 12
11 13 13 13 13 13 14 14 14 14 15 13 13 14 15 16 15 15 13 13 14 15 15 17 17 26 27 28 28 29 29 26 18 17 15 17 18 19 19 16 12 11
12 12 12 13 14 14 14 15 14 13 15 16 13 12 13 15 15 15 16 16 16 16 16 18 18 26 26 27 29 30 30 18 14 15 15 16 18 18 18 16 15 14
11 13 14 14 14 15 15 15 15 16 15 11 14 15 15 15 16 15 14 15 17 16 17 17 18 23 26 28 29 30 24 13 13 12 13 15 17 16 16 16 14 14
11 12 14 14 14 15 16 15 14 12 12 12 14 17 16 15 16 16 15 14 16 17 17 17 18 22 28 28 29 29 23 13 10 10 12 13 14 15 15 14 16 24
11 11 12 14 14 14 14 16 14 13 13 13 13 13 14 14 15 15 15 14 14 16 23 21 18 21 27 28 29 27 20 11 9 9 12 13 13 14 13 12 12 15
10 12 12 12 15 15 14 13 12 13 14 14 13 11 12 13 15 14 16 15 15 15 15 16 17 17 19 28 28 27 25 14 8 8 11 14 14 13 13 14 13 11
Wind_Direction
273 278 284 287 285 285 288 290 286 282 281 284 284 289 288 292 294 294 293 292 292 289 288 286 286 286 285 283 280 280 282 285 282 280 286 287 283 271 256 246 231 221
280 283 285 287 286 282 282 282 285 284 284 282 281 284 287 288 287 288 291 291 288 287 286 284 283 282 280 280 278 279 283 280 277 281 285 288 289 279 258 241 234 225
284 286 286 286 288 289 286 283 279 279 280 281 282 282 283 284 286 287 288 289 290 289 286 284 283 281 278 274 274 278 279 276 278 284 282 285 288 287 270 249 239 229
292 290 293 291 288 288 287 286 282 281 281 282 283 285 284 285 285 287 288 290 287 286 285 282 280 279 278 281 283 278 272 267 273 278 278 280 281 285 282 259 244 239
296 297 293 291 290 288 289 287 286 285 283 282 284 284 286 285 288 288 289 289 288 287 284 282 278 277 278 278 277 274 274 277 280 277 276 277 279 283 287 274 252 242
294 292 294 295 295 296 293 291 289 289 287 285 284 288 288 287 286 283 285 285 287 284 283 280 277 276 275 273 274 274 282 283 283 287 284 280 281 279 281 280 266 251
305 309 306 302 298 295 294 292 292 289 287 286 289 283 286 286 286 285 285 284 281 283 280 277 277 274 274 274 272 274 279 283 285 282 278 272 271 278 283 283 278 261
307 306 302 303 302 301 297 296 292 291 292 290 289 289 287 287 287 286 284 280 281 279 279 278 277 273 272 271 272 275 277 280 280 273 272 277 277 272 275 279 279 269
304 303 305 305 304 301 298 298 297 295 294 292 290 289 289 284 287 285 285 283 279 276 279 277 275 274 271 270 271 271 273 275 272 273 280 284 283 274 268 273 276 273
306 307 306 305 302 301 298 299 299 296 293 289 289 289 286 288 288 289 285 282 280 279 278 275 273 271 271 269 269 269 270 270 271 273 274 274 272 272 270 271 273 276
308 310 306 305 303 301 299 299 298 298 296 294 293 289 289 289 290 289 286 285 280 279 279 276 275 272 271 269 267 267 267 269 269 271 270 269 270 273 275 271 273 273
308 308 308 306 305 302 302 301 299 297 298 294 291 289 289 289 289 289 285 284 282 280 279 277 275 273 271 270 268 267 266 266 267 267 267 266 266 266 268 268 267 269
307 307 307 305 304 302 301 299 298 296 295 295 293 291 291 290 288 286 284 282 281 280 279 277 274 271 269 266 265 265 265 264 265 265 264 264 265 263 260 256 256 255
306 306 304 301 300 299 300 302 302 302 302 299 295 292 292 289 290 288 286 282 281 278 275 273 270 269 268 266 265 264 264 263 263 264 264 264 265 262 260 258 260 263
308 306 302 300 301 304 304 304 305 304 303 300 296 295 293 291 290 289 288 285 281 276 273 270 269 267 265 261 261 261 261 262 262 261 264 264 263 263 260 257 255 254
305 302 302 302 305 306 305 304 304 305 303 300 298 295 293 291 290 288 284 282 281 277 272 269 266 264 262 262 261 260 258 257 256 257 259 262 263 264 262 257 258 256
305 305 305 305 307 307 306 305 306 305 302 298 295 293 290 290 287 287 284 281 280 278 274 270 266 261 263 265 265 264 264 263 262 261 256 256 258 259 262 261 257 257
306 307 308 308 310 308 308 307 304 301 299 297 295 294 291 287 287 284 284 283 280 278 274 272 268 266 267 271 269 267 265 264 265 265 264 265 262 258 258 259 259 259
312 312 311 310 311 310 309 307 304 301 300 299 296 294 291 288 287 289 289 286 280 278 277 275 275 272 272 272 272 270 269 267 265 265 264 263 264 263 259 255 251 252
316 315 312 312 312 311 308 305 305 301 299 297 296 295 291 290 287 282 280 277 275 277 276 277 278 277 276 274 272 271 272 270 265 264 263 262 261 261 261 261 259 261
321 321 315 314 313 310 308 305 304 304 302 301 298 295 292 294 289 287 286 286 285 276 275 274 275 279 279 277 276 275 277 274 266 262 260 259 257 257 258 258 258 262
321 318 315 314 313 311 309 308 308 306 306 305 297 300 309 311 309 307 305 302 297 294 291 284 279 281 283 283 281 282 280 274 268 264 262 261 257 254 255 258 257 253
323 318 315 314 313 312 310 311 311 311 308 305 312 316 314 313 310 307 308 305 301 296 293 293 288 283 287 289 287 284 281 269 267 264 263 260 259 254 248 244 242 240
318 315 312 312 313 311 310 309 307 300 306 317 316 317 316 314 314 312 311 308 303 297 293 292 291 290 291 294 296 292 284 268 256 258 258 260 260 259 260 259 254 251
314 312 310 310 310 309 309 309 310 313 314 314 312 310 309 313 314 311 309 305 299 293 296 301 296 293 296 299 296 293 290 271 259 252 262 261 264 263 261 262 257 253
312 311 309 309 308 307 307 306 310 314 316 315 313 312 313 315 315 311 308 307 305 303 301 299 300 301 302 307 310 307 299 286 246 239 251 258 256 259 260 251 248 245